User: anonymous   Login
Location: Barruelo
(41.2448°N, 3.8231°W)
Time: 12:21:27
(UTC+00:00)
Language:

Cosmos 2219 - Orbit

View from above orbital plane
View from above orbital plane
View from above satellite
View from above satellite

Ground track
Ground track

The orbit is defined by the following mean orbital elements,

1 22219U          26040.29634826 +.00000000 +00000-0 -21147-4 0 00001
2 22219  71.0583  77.4274 0020309 246.0449 113.8547 14.14076468    06
Epoch (UTC): 09 February 2026 07:06:44
Eccentricity: 0.0020309
inclination: 71.0583°
perigee height: 831 km
apogee height: 860 km
right ascension of ascending node: 77.4274°
argument of perigee: 246.0449°
revolutions per day: 14.14076468
mean anomaly at epoch: 113.8547°

The dashed part of the orbit path shows where the satellite is in the earth's shadow,  

DLR